Terminal Aerodrome Forecast
Issued by NWS

Home | Current Version | Previous Version | Text Only | Print | Product List | Glossary On
Versions: 1 2 3 4 5 6 7 8 9 10 11 12 13 14 15 16 17 18 19
000
FTUS43 KPAH 290500
TAFOWB
TAF
KOWB 290533Z 2906/3006 28003KT P6SM BKN100 OVC200
     FM290900 31002KT P6SM SCT250
     FM291600 29008KT P6SM SCT050
     FM300000 32003KT P6SM SKC=

USA.gov is the U.S. government's official web portal to all federal, state and local government web resources and services.